7 * 24
多渠道服务支持
STARLINK-32676 是 SpaceX Starlink 卫星互联网项目中的一颗低轨卫星。该卫星属于 Starlink 群体的第三批部署,旨在为全球用户提供高速互联网服务。它运行在约 550 公里的近地轨道上,配备先进通信设备,支持宽带数据传输。Starlink 项目致力于构建覆盖全球的卫星网络,尤其关注偏远地区网络接入问题。STARLINK-32676 的发射和运行有助于提升网络覆盖密度和系统稳定性。
美国
(US)
| 数据来源 | 国际轨道数据 |
| 星历时间: | 2025-11-07T07:54:57+0800 18小时前 查看轨道信息 |
| 半长轴: | 6861.189km |
| 偏心率: | 0.0001101 |
| 轨道倾角: | 43.002° |
| 近地点辐角 | 281.759° |
| 升交点赤经 | 287.470° |
| 平近点角 | 78.314° |
| 近地点: | 482.298km |
| 远地点: | 483.81km |
| 周期: | 94.267分钟 |
| 每日圈数: | 15.275792 |